Regional Weather Roundup
Issued by NWS

Home | Current Version | Previous Version | Text Only | Print | Product List | Glossary On
Versions: 1 2 3 4 5 6 7 8 9 10 11 12 13 14 15 16 17 18 19 20 21 22 23 24 25 26 27 28 29 30 31 32 33 34 35 36 37 38 39 40 41 42 43 44 45 46 47 48 49 50
000
ASUS43 KLSX 150407
RWRMO

WEATHER SUMMARY FOR MISSOURI
NATIONAL WEATHER SERVICE SPRINGFIELD MO
1000 PM CST SAT DEC 14 2019

NOTE: "FAIR" INDICATES FEW OR NO CLOUDS BELOW 12,000 FEET WITH NO
       SIGNIFICANT WEATHER AND/OR OBSTRUCTIONS TO VISIBILITY.
       CURRENT SKY AND/OR WEATHER CONDITIONS ARE NOT AVAILABLE FOR
       CHILLICOTHE AND FARMINGTON.

MOZ001>031-035>038-043-044-053-054-150500-
...NORTHERN AND WESTERN MISSOURI...

CITY           SKY/WX    TMP DP  RH WIND       PRES   REMARKS
KANSAS CTY INT CLOUDY    23  16  74 NE7       30.00F WCI  15
KANSAS C DTWN  CLOUDY    25  14  63 N8        30.02S WCI  16
LEE`S SUMMIT   CLOUDY    25  16  68 NE6       30.01S WCI  18
ST JOSEPH      CLEAR     23  14  68 N7        30.04R WCI  15
CHILLICOTHE      N/A     23  17  78 N3        30.03S
KIRKSVILLE     CLEAR     19  14  81 NW5       30.01R WCI  12

$$
MOZ066>068-077>081-088>096-101>105-150500-
...SOUTHWEST MISSOURI...

CITY           SKY/WX    TMP DP  RH WIND       PRES   REMARKS
SPRINGFIELD    MOCLDY    30  25  81 E5        29.96R WCI  25
JOPLIN         CLOUDY    33  27  78 E5        29.98R WCI  29

$$
MOZ032>034-039>042-045>050-055>058-069>072-150500-
...CENTRAL MISSOURI...

CITY           SKY/WX    TMP DP  RH WIND       PRES   REMARKS
COLUMBIA       CLOUDY    27  20  75 CALM      30.01R
JEFFERSON CITY CLOUDY    29  20  69 NW6       30.04R WCI  23
ROLLA          CLOUDY    29  23  78 N7        29.99R WCI  22
SEDALIA        CLOUDY    27  20  75 N10       30.01F WCI  17
WARRENSBURG      N/A    N/A N/A N/A MISG        N/A
OSAGE BEACH    CLOUDY    28  23  81 N5        30.02R WCI  23

$$
MOZ051-052-059>065-150500-
...EAST CENTRAL MISSOURI...

CITY           SKY/WX    TMP DP  RH WIND       PRES   REMARKS
ST LOUIS INTL  CLOUDY    30  22  72 NW13      30.00R WCI  20
SPIRIT OF STL  CLOUDY    30  22  72 NW10      30.01R WCI  21
ST CHARLES       N/A    N/A N/A N/A MISG      30.01R

$$
MOZ072>076-082>087-097>100-106>115-150500-
...SOUTH CENTRAL AND SOUTHEAST MISSOURI...

CITY           SKY/WX    TMP DP  RH WIND       PRES   REMARKS
CAPE GIRARDEAU CLOUDY    34  28  79 NW9       30.00R WCI  27
FARMINGTON     CLOUDY    31  27  85 NW5       29.99R WCI  26
POPLAR BLUFF   CLOUDY    37  31  78 N7        29.99R
WEST PLAINS    CLOUDY    31  27  85 N5        29.98R WCI  26

$$



USA.gov is the U.S. government's official web portal to all federal, state and local government web resources and services.